Probability
9 10 11 11 10 8 6 6 8 9 8 7 6 5 6 8 9 8 7 7 7 8 8 7 6 7 7 7 6 6 6 5 3 3 3 4 6 6 4 4 3 2 2
8 9 11 10 9 8 7 7 8 7 6 5 4 4 5 6 6 6 5 4 5 6 7 7 6 6 7 7 6 6 6 4 3 3 3 4 5 6 6 5 3 1 2
6 7 8 9 8 8 8 7 6 5 4 4 3 3 3 4 3 3 2 2 3 4 6 7 6 6 7 6 6 6 6 5 4 4 2 2 4 5 7 6 3 2 3
4 4 5 6 6 6 7 6 5 5 5 5 4 5 4 3 1 1 1 1 2 4 5 6 6 6 6 5 3 4 6 6 6 5 3 1 1 2 4 4 4 4 4
2 2 3 3 3 3 4 5 6 6 6 6 7 8 7 3 1 0 0 0 1 2 4 4 4 4 5 3 2 1 3 5 6 5 3 1 0 0 1 2 3 4 4
1 1 1 1 1 1 1 3 5 6 8 9 10 10 8 3 0 0 0 0 0 0 1 1 1 1 2 2 1 0 0 1 3 3 2 0 0 0 0 1 1 2 2
0 0 0 0 0 0 0 1 4 7 11 12 12 10 7 2 0 0 0 0 0 0 0 0 0 0 1 1 1 1 1 0 0 1 2 1 0 0 0 0 1 1 1
0 0 0 0 0 0 0 1 4 8 12 13 11 9 6 2 0 0 0 0 0 1 1 0 0 0 0 0 1 2 2 1 0 1 1 1 0 0 1 0 0 1 1
0 0 0 0 0 0 1 3 6 9 10 10 8 7 5 2 0 0 0 0 0 2 2 1 0 0 0 0 1 2 2 1 0 0 0 0 0 0 0 0 0 0 1
0 0 1 1 1 1 3 5 7 8 8 7 7 6 5 2 0 0 0 0 0 1 2 1 0 0 0 0 0 1 1 1 0 0 1 1 1 1 1 1 0 0 1
2 3 4 4 2 2 4 6 8 7 7 6 6 6 5 2 0 0 0 0 0 0 0 0 0 0 0 0 0 0 0 0 0 1 2 2 2 3 3 3 1 1 2
9 8 8 6 3 2 3 6 7 7 6 6 5 4 3 1 0 0 0 0 0 0 0 0 0 0 0 0 0 0 0 0 0 1 2 2 2 3 5 5 3 3 3
13 12 10 7 5 3 4 4 5 6 6 5 3 1 1 0 0 0 0 0 0 0 0 0 0 0 0 0 0 0 0 0 0 0 1 1 1 2 5 5 4 3 3
13 12 10 8 7 6 5 4 5 6 6 4 2 0 0 0 0 0 0 0 0 0 0 0 0 0 0 0 0 0 0 0 0 0 0 0 1 3 4 3 3 3 2
13 11 8 6 6 5 4 4 4 5 4 3 2 0 0 0 0 0 0 0 0 0 0 0 0 0 0 0 1 1 1 1 1 0 0 1 2 3 2 2 2 1 1
13 10 6 4 3 2 2 2 3 2 2 1 1 0 0 0 0 0 0 0 0 0 0 0 0 0 0 0 1 2 2 2 1 0 0 1 1 1 1 1 0 0 0
10 8 4 2 1 1 0 1 1 1 0 0 0 0 0 0 0 0 0 0 0 0 0 0 0 0 0 0 0 1 1 1 1 0 1 1 0 0 1 0 0 0 0
5 3 1 1 0 0 0 0 1 1 0 0 0 0 0 0 0 0 0 0 0 0 0 0 0 0 0 0 0 0 0 0 0 0 1 1 0 0 0 0 0 0 0
3 1 0 0 0 0 0 0 0 0 0 0 0 0 0 0 0 0 0 0 0 0 0 0 0 0 0 0 0 0 0 0 1 1 1 1 0 0 0 0 0 0 0
3 1 0 0 0 0 0 0 0 0 0 0 0 0 0 0 0 0 0 0 0 0 0 0 0 0 0 0 0 0 0 0 1 1 1 1 1 1 1 0 0 0 0
1 0 0 0 0 0 0 0 0 0 0 0 0 0 0 0 0 0 0 0 0 0 0 0 0 0 0 0 0 0 0 0 1 1 1 1 2 2 1 0 0 0 0
1 0 0 0 0 0 0 0 0 0 0 0 0 0 0 0 0 0 1 1 0 0 0 0 0 0 0 0 0 0 0 0 0 0 0 1 1 1 1 0 0 0 0
2 1 1 1 0 0 0 0 0 0 0 0 0 0 0 0 0 0 1 1 0 0 0 0 0 0 0 0 0 0 0 0 0 0 0 0 0 0 0 0 0 0 0
3 3 2 1 0 0 0 0 0 0 0 0 0 0 0 0 0 0 1 1 0 0 0 0 0 0 0 0 0 0 0 0 0 0 0 0 0 0 0 0 0 0 0
2 2 2 1 0 0 0 0 0 0 0 0 0 0 0 0 0 0 0 0 0 0 0 0 0 0 0 0 0 0 0 0 0 0 0 0 0 0 0 0 0 0 0
1 1 1 0 0 0 0 0 0 1 1 1 0 0 0 0 0 0 0 0 0 0 0 0 0 0 0 0 0 0 0 0 0 0 0 0 0 0 0 0 0 0 0
Wind_Speed
0 1 1 1 1 1 1 1 1 1 1 1 1 1 1 1 1 1 2 2 2 3 3 3 3 3 3 3 2 2 2 2 3 4 2 2 3 3 3 3 4 4 5
0 0 0 1 1 1 1 1 1 0 1 1 1 1 2 2 1 2 3 2 2 2 3 3 4 3 3 3 2 2 2 2 3 4 4 3 3 3 3 4 3 3 3
1 1 0 0 1 1 1 1 1 1 1 1 1 1 2 2 2 3 3 3 3 2 2 2 3 3 4 3 3 3 2 3 2 3 4 2 2 2 2 2 2 2 3
1 1 0 0 1 1 1 1 1 1 1 1 1 1 1 2 2 3 3 3 3 3 2 2 2 2 3 4 3 3 3 3 3 3 3 2 2 2 1 1 1 1 1
0 0 1 1 1 1 1 1 1 1 1 1 1 1 1 1 3 4 4 4 3 3 3 3 2 2 3 3 3 3 3 2 2 3 3 2 2 2 1 1 1 1 2
0 0 1 0 0 0 0 0 0 1 1 1 1 1 1 2 3 4 4 4 4 4 4 4 3 2 3 3 4 3 3 3 3 2 3 2 2 2 2 2 2 2 2
0 0 0 0 1 1 1 0 1 1 1 1 1 1 1 1 2 3 4 3 3 3 3 4 5 4 4 4 3 3 3 4 4 3 3 4 3 3 2 2 3 3 3
0 1 1 1 1 1 1 0 1 1 1 1 1 1 1 1 1 2 4 3 3 3 3 3 3 3 5 5 4 4 3 2 2 2 2 3 4 3 2 3 3 3 3
1 1 1 1 1 1 1 1 1 1 2 1 1 1 1 1 1 2 3 3 2 3 2 2 2 2 3 4 3 4 4 3 3 3 4 4 5 5 4 2 3 3 3
1 1 1 1 1 1 1 1 1 2 2 2 2 1 1 1 2 0 2 2 3 3 2 1 2 2 2 3 3 3 4 4 4 4 4 4 4 4 4 3 3 3 3
2 2 1 1 1 1 1 1 2 2 2 2 2 2 2 1 2 2 1 2 3 4 3 2 1 1 2 4 4 4 5 5 4 4 3 3 3 2 2 3 3 3 3
1 1 1 1 2 1 1 1 1 2 3 3 3 2 1 2 2 3 4 4 4 4 4 3 2 3 4 5 5 5 6 5 3 3 3 3 3 3 3 3 3 3 4
1 2 2 2 1 2 2 2 2 3 3 2 1 1 1 1 2 2 4 5 6 4 4 6 7 7 6 5 7 7 5 2 2 3 3 3 3 3 3 3 3 3 4
2 2 2 2 2 2 1 2 2 2 2 1 2 2 1 1 1 0 2 3 4 4 4 7 8 8 7 6 4 3 3 2 2 3 3 3 3 2 2 2 2 2 2
2 3 3 3 2 1 1 1 2 1 0 1 2 2 2 1 1 1 2 2 3 3 5 4 3 2 2 2 2 2 2 2 2 3 3 3 3 2 2 2 2 2 2
2 3 3 2 2 2 2 2 1 2 2 2 1 1 0 1 2 2 4 5 6 5 3 3 3 3 3 2 2 2 2 2 2 2 2 2 2 2 2 2 2 2 3
3 3 3 3 2 2 2 3 2 2 3 3 4 4 4 4 4 4 5 6 7 4 2 3 3 2 3 3 3 3 2 2 2 2 2 2 2 2 2 2 2 2 3
3 3 4 3 2 3 3 3 2 2 3 3 5 8 9 8 7 6 5 4 4 2 2 3 3 2 2 2 2 3 3 3 2 3 2 2 2 2 3 3 2 2 3
3 2 2 3 3 3 3 3 3 2 2 2 2 3 7 7 7 6 4 3 4 3 3 2 2 2 2 2 2 2 2 2 2 2 2 3 3 3 3 3 3 3 3
3 5 5 4 4 3 3 3 3 2 2 1 1 1 1 2 2 3 3 3 3 3 3 3 2 2 2 2 2 2 2 2 3 3 3 3 3 3 3 3 3 3 3
4 4 6 5 4 3 3 3 2 2 2 1 1 1 2 2 2 2 2 1 2 2 2 2 2 2 2 2 3 3 4 3 3 4 4 4 4 3 3 3 3 3 3
5 4 3 3 3 2 3 3 3 2 2 2 1 2 4 2 2 1 2 1 1 2 2 2 2 2 2 2 3 3 3 4 4 4 4 4 4 3 3 3 3 3 3
6 5 4 3 3 3 4 4 3 2 3 2 2 1 1 2 2 1 1 1 2 2 1 1 1 2 2 2 2 2 3 3 4 4 5 5 4 4 3 3 4 4 3
6 5 4 3 3 4 3 3 2 2 2 2 1 1 1 1 1 1 1 1 1 2 1 1 1 2 3 3 3 3 3 4 4 4 5 5 5 4 3 3 3 3 3
6 5 4 3 3 3 3 2 2 2 2 1 1 1 1 1 1 1 1 0 0 1 1 1 1 2 3 3 4 4 3 4 4 5 5 4 4 4 4 4 4 3 3
5 5 4 3 3 2 2 3 2 2 1 1 1 1 1 1 1 1 0 1 1 0 1 1 2 3 3 3 3 3 2 3 5 6 5 4 4 4 4 3 5 4 4
Wind_Direction
97 353 19 10 338 329 324 338 328 329 332 340 324 302 281 287 318 315 301 304 307 308 309 315 308 305 310 306 295 285 271 261 270 282 282 271 260 256 244 229 226 215 212
174 80 30 10 346 328 315 302 320 344 307 315 311 306 304 320 329 313 313 317 307 313 319 326 323 320 318 308 303 298 286 275 268 280 282 269 256 251 239 229 243 238 216
138 102 74 27 343 321 326 336 354 6 357 325 313 309 319 339 333 317 309 306 303 304 315 324 328 336 334 325 313 307 301 300 292 286 285 289 280 265 250 260 261 264 239
106 113 99 14 343 333 360 16 22 5 350 343 338 328 327 347 340 323 318 315 311 304 303 308 332 355 345 330 324 324 318 315 316 308 290 295 298 298 279 272 308 296 274
62 102 91 10 12 3 24 27 2 325 324 344 334 331 332 335 339 345 333 324 326 328 336 328 347 2 353 335 330 334 327 320 319 316 304 314 322 327 317 304 309 294 285
351 2 94 14 358 340 354 310 346 341 332 339 327 317 324 345 4 6 352 328 327 339 342 335 324 338 329 306 301 302 303 293 300 306 313 318 313 312 314 307 308 296 288
216 308 94 309 296 293 300 346 334 319 306 297 299 318 6 19 356 355 344 320 322 330 329 324 322 341 343 330 320 302 289 278 261 269 300 303 302 301 298 295 289 284 274
266 282 292 280 265 265 273 285 278 281 276 278 285 307 314 343 7 355 339 307 300 300 303 304 313 331 338 339 333 334 331 337 286 263 277 290 296 297 281 274 273 277 276
278 289 304 300 293 285 300 309 289 282 276 271 269 265 284 8 71 356 328 297 293 294 290 310 327 335 352 339 328 323 323 319 307 285 266 272 283 287 284 285 281 278 281
277 291 303 319 315 317 286 272 274 266 264 273 269 249 239 188 164 306 315 302 309 310 310 329 350 331 334 325 309 306 304 301 307 308 298 286 279 277 270 248 260 271 275
272 282 298 297 259 232 239 241 251 261 267 267 264 242 197 188 173 187 239 294 311 314 317 320 341 291 294 296 292 287 285 293 296 291 289 295 295 287 267 248 240 250 263
277 282 279 265 274 265 245 259 254 259 260 255 256 250 196 170 160 196 222 251 289 305 309 320 327 302 294 295 289 283 292 302 298 299 301 302 296 286 275 261 249 246 246
298 284 276 268 258 254 242 236 245 249 259 265 260 256 234 148 148 189 234 259 277 283 303 311 306 292 288 277 260 267 276 279 288 294 294 289 283 277 271 265 259 255 255
287 281 265 251 243 239 239 245 247 261 274 302 323 329 323 38 75 32 283 277 286 283 294 298 291 277 269 270 277 267 247 259 267 279 288 288 285 283 282 281 275 272 277
276 277 274 264 250 222 221 257 260 359 68 4 355 343 334 1 356 304 288 298 304 315 314 291 287 290 285 274 276 278 268 256 262 270 277 291 299 301 301 298 299 300 289
269 268 269 261 229 222 211 217 221 212 182 173 182 230 311 169 233 289 298 295 297 308 307 289 298 306 307 310 304 295 280 278 271 273 280 290 301 307 311 319 318 304 293
257 268 276 274 255 239 241 228 212 207 214 228 237 235 229 233 251 274 290 304 302 301 279 284 294 302 310 316 310 307 302 295 284 290 303 309 313 315 314 307 302 301 298
259 256 269 275 277 275 273 262 239 210 199 212 228 231 232 236 244 257 281 314 302 281 278 286 293 299 303 307 311 319 323 327 336 336 336 327 315 310 311 304 297 301 300
261 264 268 280 275 273 276 278 271 257 245 197 190 208 228 238 246 253 253 263 281 294 295 293 298 309 316 323 323 324 335 342 337 333 338 328 317 311 312 308 301 307 298
246 249 255 267 271 266 269 275 277 276 264 242 216 188 169 202 232 238 224 241 266 286 299 304 302 309 321 329 330 330 342 350 338 333 335 325 315 308 306 304 302 299 291
264 241 229 242 259 272 278 280 279 275 278 273 217 159 157 219 260 275 267 238 257 274 282 289 299 324 340 338 341 341 346 350 349 339 330 323 322 321 318 310 302 301 307
284 270 253 263 271 273 278 279 282 284 282 279 257 177 177 217 259 286 308 316 298 288 292 310 337 354 1 356 350 350 357 355 347 335 325 319 316 315 313 315 320 316 314
271 272 266 267 272 252 255 260 265 280 288 281 276 251 193 243 277 305 330 338 315 301 305 343 350 360 11 3 359 14 13 353 336 327 324 318 318 315 314 313 318 326 324
283 279 272 273 275 269 265 273 267 268 285 292 291 274 242 258 278 276 270 263 298 315 333 29 4 23 29 25 24 31 19 350 330 321 319 310 309 311 318 318 318 326 321
281 282 280 277 282 287 293 298 295 287 278 272 277 255 227 223 272 281 275 270 289 314 344 14 28 39 28 34 41 36 13 350 342 331 313 306 309 314 321 325 331 329 328
286 296 297 291 290 301 307 309 303 300 295 302 321 331 302 281 254 272 351 357 333 340 7 19 30 45 30 32 52 53 20 350 339 331 319 313 317 324 332 331 330 331 335